This is the latest recevied weather packets stored in our database for station/object N9OJR. If no packets are shown the sender has not sent any weather packets the latest 10 day(s).
| Time | Temp. | Humidity | Pressure | Rain* | Wind** | Luminosity | Snow |
|---|---|---|---|---|---|---|---|
| 1778016856 | 15.56° C | 95% | 1003.8 hPa | 0 mm | - | 37 W/m² | - |
| 1778016551 | 15.56° C | 94% | 1003.8 hPa | 0 mm | - | 85 W/m² | - |
| 1778016248 | 15.56° C | 94% | 1003.5 hPa | 0 mm | - | 47 W/m² | - |
| 1778015945 | 15° C | 94% | 1003.9 hPa | 0 mm | - | 46 W/m² | - |
| 1778015642 | 15° C | 95% | 1003.9 hPa | 0 mm | - | 70 W/m² | - |
| 1778015338 | 15.56° C | 95% | 1003.9 hPa | 0 mm | - | 59 W/m² | - |
| 1778015036 | 15° C | 95% | 1003.9 hPa | 0 mm | - | 72 W/m² | - |
| 1778014732 | 15.56° C | 96% | 1003.9 hPa | 0 mm | - | 42 W/m² | - |
| 1778014431 | 15.56° C | 96% | 1004 hPa | 0 mm | - | 68 W/m² | - |
| 1778014128 | 15.56° C | 95% | 1004 hPa | 0 mm | - | 94 W/m² | - |
| 1778013825 | 15.56° C | 94% | 1004.2 hPa | 0 mm | - | 87 W/m² | - |
| 1778013522 | 15.56° C | 93% | 1004.2 hPa | 0 mm | - | 26 W/m² | - |
| 1778013218 | 16.11° C | 92% | 1004.2 hPa | 1.78 mm | - | 36 W/m² | - |
| 1778012915 | 16.67° C | 89% | 1004.1 hPa | 1.78 mm | - | 48 W/m² | - |
| 1778012611 | 16.67° C | 87% | 1004 hPa | 1.27 mm | - | 12 W/m² | - |
| 1778012308 | 17.22° C | 84% | 1003.8 hPa | 1.27 mm | - | 15 W/m² | - |
| 1778012005 | 17.78° C | 81% | 1004 hPa | 0 mm | - | 16 W/m² | - |
| 1778011704 | 18.33° C | 76% | 1004 hPa | 0 mm | - | 22 W/m² | - |
| 1778011400 | 18.33° C | 75% | 1004 hPa | 0 mm | - | 17 W/m² | - |
| 1778011095 | 18.33° C | 76% | 1003.8 hPa | 0 mm | - | 27 W/m² | - |
| 1778010793 | 18.33° C | 75% | 1003.8 hPa | 0 mm | - | 36 W/m² | - |
| 1778010490 | 18.33° C | 74% | 1003.7 hPa | 0 mm | - | 42 W/m² | - |
| 1778010188 | 18.33° C | 75% | 1004.1 hPa | 0 mm | - | 42 W/m² | - |
| 1778009882 | 18.33° C | 74% | 1004 hPa | 0 mm | - | 33 W/m² | - |
| 1778009581 | 18.89° C | 74% | 1003.9 hPa | 0 mm | - | 39 W/m² | - |
* Rain latest hour (hover to see other rain measurements)
** Current wind speed in m/s (hover to see current wind gust speed)